User: anonymous   Login
Location: Sungai Anya
(2.6167°N, 114.0500°E)
Time: 12:19:07
(UTC+00:00)
Language:

FALCON 9 DEB - Orbit

View from above orbital plane
View from above orbital plane
View from above satellite
View from above satellite

Ground track
Ground track

The orbit data is extracted from the following two-line orbital elements,

1 44295U 19029BN  22025.71198431  .00010094  00000-0  19017-3 0  9995
2 44295  52.9986 196.8471 0008591 148.5606 211.5916 15.49154472152324
Epoch (UTC): 25 January 2022 17:05:15
Eccentricity: 0.0008591
inclination: 52.9986°
perigee height: 413 km
apogee height: 425 km
right ascension of ascending node: 196.8471°
argument of perigee: 148.5606°
revolutions per day: 15.49154472
mean anomaly at epoch: 211.5916°
orbit number at epoch: 15232

The dashed part of the orbit path shows where the satellite is in the earth's shadow,  

DLR